When you browse on this site, cookies collect data to enhance your experience and personalize the content and advertising you see.
Visit our Privacy Policy to learn more. By continuing to use the site, you agree to this use of cookies and data.
  • In Hungary
  • List of Countries
  • For 7 days
  • Water Temperature
  • Satellite Maps
  • Weather Map
  • News
  • Weather Widgets
  • user-avatar
    Login

    Hourly Weather Venice

    Today, 21 March, Thursday

    Time Temperature Precipitation Wind Pressure Humidity
    00:00 +6°C° 0 mm 7 mps 774 mmHg 51%
    01:00 +5°C° 0 mm 7 mps 774 mmHg 52%
    02:00 +5°C° 0 mm 6 mps 774 mmHg 54%
    03:00 +5°C° 0 mm 6 mps 774 mmHg 55%
    04:00 +4°C° 0 mm 6 mps 774 mmHg 56%
    05:00 +4°C° 0 mm 6 mps 774 mmHg 56%
    06:00 +5°C° 0 mm 5 mps 774 mmHg 57%
    07:00 +5°C° 0 mm 5 mps 774 mmHg 55%
    08:00 +7°C° 0 mm 5 mps 774 mmHg 49%
    09:00 +8°C° 0 mm 5 mps 774 mmHg 44%
    10:00 +10°C° 0 mm 5 mps 774 mmHg 38%
    11:00 +12°C° 0 mm 4 mps 774 mmHg 35%
    12:00 +13°C° 0 mm 4 mps 773 mmHg 32%
    13:00 +15°C° 0 mm 4 mps 773 mmHg 28%
    14:00 +15°C° 0 mm 4 mps 773 mmHg 28%
    15:00 +17°C° 0 mm 3 mps 772 mmHg 28%
    16:00 +17°C° 0 mm 3 mps 772 mmHg 28%
    17:00 +16°C° 0 mm 2 mps 772 mmHg 32%
    18:00 +14°C° 0 mm 2 mps 773 mmHg 36%
    19:00 +13°C° 0 mm 1 mps 773 mmHg 40%
    20:00 +12°C° 0 mm 2 mps 773 mmHg 43%
    21:00 +11°C° 0 mm 3 mps 773 mmHg 46%
    22:00 +10°C° 0 mm 3 mps 774 mmHg 49%
    23:00 +10°C° 0 mm 3 mps 774 mmHg 52%

    Tomorrow, 22 March, Friday

    Time Temperature Precipitation Wind Pressure Humidity
    00:00 +9°C° 0 mm 3 mps 774 mmHg 54%
    01:00 +9°C° 0 mm 3 mps 774 mmHg 57%
    02:00 +8°C° 0 mm 3 mps 773 mmHg 57%
    03:00 +8°C° 0 mm 3 mps 773 mmHg 57%
    04:00 +8°C° 0 mm 3 mps 773 mmHg 58%
    05:00 +8°C° 0 mm 2 mps 773 mmHg 57%
    06:00 +8°C° 0 mm 2 mps 773 mmHg 57%
    07:00 +8°C° 0 mm 2 mps 773 mmHg 57%
    08:00 +9°C° 0 mm 2 mps 773 mmHg 51%
    09:00 +12°C° 0 mm 2 mps 772 mmHg 45%
    10:00 +14°C° 0 mm 2 mps 772 mmHg 38%
    11:00 +15°C° 0 mm 2 mps 772 mmHg 35%
    12:00 +18°C° 0 mm 1 mps 772 mmHg 32%
    13:00 +19°C° 0 mm 1 mps 771 mmHg 29%
    14:00 +19°C° 0 mm 1 mps 771 mmHg 28%
    15:00 +19°C° 0 mm 1 mps 771 mmHg 27%
    16:00 +20°C° 0 mm 1 mps 770 mmHg 26%
    17:00 +18°C° 0 mm 1 mps 770 mmHg 29%
    18:00 +16°C° 0 mm 1 mps 770 mmHg 32%
    19:00 +15°C° 0 mm 1 mps 771 mmHg 35%
    20:00 +14°C° 0 mm 1 mps 771 mmHg 37%
    21:00 +14°C° 0 mm 2 mps 771 mmHg 38%
    22:00 +13°C° 0 mm 2 mps 771 mmHg 40%
    23:00 +13°C° 0 mm 2 mps 771 mmHg 43%

    Day after tomorrow, 23 March, Saturday

    Time Temperature Precipitation Wind Pressure Humidity
    00:00 +13°C° 0 mm 2 mps 771 mmHg 47%
    01:00 +11°C° 0 mm 3 mps 771 mmHg 50%
    02:00 +11°C° 0 mm 3 mps 771 mmHg 52%
    03:00 +10°C° 0 mm 3 mps 770 mmHg 55%
    04:00 +10°C° 0 mm 3 mps 770 mmHg 57%
    05:00 +10°C° 0 mm 3 mps 770 mmHg 58%
    06:00 +10°C° 0 mm 3 mps 770 mmHg 58%
    07:00 +10°C° 0 mm 2 mps 770 mmHg 59%
    08:00 +13°C° 0 mm 2 mps 770 mmHg 53%
    09:00 +15°C° 0 mm 2 mps 770 mmHg 47%
    10:00 +17°C° 0 mm 2 mps 769 mmHg 41%
    11:00 +18°C° 0 mm 2 mps 769 mmHg 38%
    12:00 +19°C° 0 mm 2 mps 769 mmHg 36%
    13:00 +21°C° 0 mm 1 mps 769 mmHg 33%
    14:00 +22°C° 0 mm 1 mps 768 mmHg 32%
    15:00 +22°C° 0 mm 1 mps 768 mmHg 32%
    16:00 +22°C° 0 mm 1 mps 767 mmHg 32%
    17:00 +20°C° 0 mm 1 mps 768 mmHg 35%
    18:00 +18°C° 0 mm 2 mps 768 mmHg 38%
    19:00 +17°C° 0 mm 2 mps 768 mmHg 42%
    20:00 +16°C° 0 mm 2 mps 768 mmHg 44%
    21:00 +15°C° 0 mm 1 mps 769 mmHg 46%
    22:00 +15°C° 0 mm 1 mps 769 mmHg 48%
    23:00 +15°C° 0 mm 1 mps 769 mmHg 50%

    24 March, Sunday

    Time Temperature Precipitation Wind Pressure Humidity
    00:00 +14°C° 0 mm 1 mps 769 mmHg 53%
    01:00 +14°C° 0 mm 1 mps 769 mmHg 55%
    02:00 +13°C° 0 mm 1 mps 769 mmHg 57%
    03:00 +13°C° 0 mm 1 mps 768 mmHg 59%
    04:00 +12°C° 0 mm 1 mps 768 mmHg 61%
    05:00 +12°C° 0 mm 1 mps 768 mmHg 61%
    06:00 +12°C° 0 mm 1 mps 768 mmHg 62%
    07:00 +12°C° 0 mm 1 mps 768 mmHg 63%
    08:00 +14°C° 0 mm 1 mps 768 mmHg 57%
    09:00 +16°C° 0 mm 1 mps 768 mmHg 52%
    10:00 +19°C° 0 mm 1 mps 767 mmHg 46%
    11:00 +20°C° 0 mm 1 mps 767 mmHg 44%
    12:00 +21°C° 0 mm 1 mps 767 mmHg 41%
    13:00 +22°C° 0 mm 1 mps 766 mmHg 38%
    14:00 +23°C° 0 mm 1 mps 766 mmHg 37%
    15:00 +23°C° 0 mm 2 mps 765 mmHg 36%
    16:00 +23°C° 0 mm 2 mps 765 mmHg 35%
    17:00 +21°C° 0 mm 2 mps 765 mmHg 40%
    18:00 +19°C° 0 mm 2 mps 765 mmHg 44%
    19:00 +18°C° 0 mm 2 mps 765 mmHg 48%
    20:00 +17°C° 0 mm 2 mps 766 mmHg 51%
    21:00 +16°C° 0 mm 2 mps 766 mmHg 53%
    22:00 +15°C° 0 mm 1 mps 766 mmHg 56%
    23:00 +15°C° 0 mm 1 mps 766 mmHg 58%

    25 March, Monday

    Time Temperature Precipitation Wind Pressure Humidity
    00:00 +15°C° 0 mm 1 mps 766 mmHg 59%
    01:00 +13°C° 0 mm 0 mps 766 mmHg 61%
    02:00 +14°C° 0 mm 1 mps 766 mmHg 62%
    03:00 +14°C° 0 mm 1 mps 766 mmHg 63%
    04:00 +13°C° 0 mm 2 mps 766 mmHg 64%
    05:00 +13°C° 0 mm 2 mps 766 mmHg 65%
    06:00 +13°C° 0 mm 2 mps 766 mmHg 66%
    07:00 +13°C° 0 mm 2 mps 766 mmHg 68%
    08:00 +14°C° 0 mm 3 mps 766 mmHg 63%
    09:00 +17°C° 0 mm 3 mps 766 mmHg 58%
    10:00 +18°C° 0 mm 3 mps 766 mmHg 54%
    11:00 +19°C° 0 mm 3 mps 766 mmHg 52%
    12:00 +19°C° 0 mm 4 mps 766 mmHg 50%
    13:00 +20°C° 0 mm 4 mps 765 mmHg 48%
    14:00 +20°C° 0 mm 3 mps 765 mmHg 48%
    15:00 +19°C° 0 mm 3 mps 765 mmHg 48%
    16:00 +19°C° 0 mm 3 mps 764 mmHg 49%
    17:00 +18°C° 0 mm 3 mps 764 mmHg 52%
    18:00 +17°C° 0 mm 3 mps 764 mmHg 56%
    19:00 +16°C° 0 mm 2 mps 765 mmHg 60%
    20:00 +14°C° 0.1 mm 3 mps 765 mmHg 61%
    21:00 +14°C° 0.1 mm 4 mps 766 mmHg 63%
    22:00 +13°C° 0.1 mm 5 mps 766 mmHg 64%
    23:00 +13°C° 0.1 mm 5 mps 767 mmHg 65%

    26 March, Tuesday

    Time Temperature Precipitation Wind Pressure Humidity
    00:00 +13°C° 0.1 mm 4 mps 767 mmHg 65%
    01:00 +13°C° 0.1 mm 4 mps 767 mmHg 65%
    02:00 +13°C° 0 mm 4 mps 768 mmHg 65%
    03:00 +12°C° 0 mm 3 mps 768 mmHg 65%
    04:00 +12°C° 0 mm 3 mps 768 mmHg 65%
    05:00 +12°C° 0 mm 3 mps 768 mmHg 65%
    06:00 +12°C° 0 mm 4 mps 769 mmHg 65%
    07:00 +12°C° 0 mm 4 mps 769 mmHg 65%
    08:00 +12°C° 0 mm 4 mps 769 mmHg 61%
    09:00 +13°C° 0 mm 3 mps 770 mmHg 57%
    10:00 +14°C° 0 mm 3 mps 770 mmHg 53%
    11:00 +14°C° 0 mm 3 mps 770 mmHg 50%
    12:00 +16°C° 0 mm 3 mps 770 mmHg 46%
    13:00 +16°C° 0 mm 3 mps 770 mmHg 43%
    14:00 +16°C° 0 mm 3 mps 770 mmHg 41%
    15:00 +16°C° 0 mm 3 mps 770 mmHg 40%
    16:00 +15°C° 0 mm 4 mps 769 mmHg 39%
    17:00 +14°C° 0 mm 4 mps 770 mmHg 44%
    18:00 +13°C° 0 mm 4 mps 771 mmHg 49%
    19:00 +12°C° 0 mm 4 mps 771 mmHg 53%
    20:00 +11°C° 0 mm 3 mps 772 mmHg 55%
    21:00 +11°C° 0 mm 3 mps 773 mmHg 57%
    22:00 +10°C° 0 mm 3 mps 774 mmHg 59%
    23:00 +10°C° 0 mm 2 mps 774 mmHg 60%
    Show more